TimeMST,TemperatureF,Dew PointF,Humidity,Sea Level PressureIn,VisibilityMPH,Wind Direction,Wind SpeedMPH,Gust SpeedMPH,PrecipitationIn,Events,Conditions,WindDirDegrees,DateUTC
12:53 AM,19.0,10.0,68,29.99,10.0,South,3.5,-,N/A,,Clear,180,2012-12-08 07:53:00
1:53 AM,19.9,10.9,68,29.98,10.0,Calm,Calm,-,N/A,,Clear,0,2012-12-08 08:53:00
2:53 AM,28.0,18.0,66,29.95,10.0,SSW,5.8,-,N/A,,Clear,210,2012-12-08 09:53:00
3:53 AM,28.4,17.6,64,29.90,10.0,SSW,8.1,-,N/A,,Clear,210,2012-12-08 10:53:00
4:53 AM,28.0,18.0,66,29.94,10.0,SSW,11.5,-,N/A,,Clear,200,2012-12-08 11:53:00
5:53 AM,26.1,17.1,69,29.95,10.0,SSW,10.4,-,N/A,,Clear,210,2012-12-08 12:53:00
6:53 AM,23.0,16.0,74,29.96,10.0,SW,8.1,-,N/A,,Clear,220,2012-12-08 13:53:00
7:53 AM,28.0,18.0,66,29.92,10.0,SSW,10.4,-,N/A,,Clear,210,2012-12-08 14:53:00
8:53 AM,34.0,21.9,61,29.89,10.0,SSW,8.1,-,N/A,,Clear,200,2012-12-08 15:53:00
9:53 AM,39.0,23.0,53,29.86,10.0,South,18.4,-,N/A,,Clear,190,2012-12-08 16:53:00
10:53 AM,45.0,23.0,42,29.80,10.0,South,21.9,27.6,N/A,,Clear,180,2012-12-08 17:53:00
11:53 AM,48.0,21.9,36,29.75,10.0,South,23.0,29.9,N/A,,Clear,180,2012-12-08 18:53:00
12:53 PM,48.9,24.1,38,29.75,10.0,South,17.3,26.5,N/A,,Clear,190,2012-12-08 19:53:00
1:53 PM,48.9,26.1,41,29.71,10.0,SSW,17.3,21.9,N/A,,Clear,200,2012-12-08 20:53:00
2:53 PM,48.9,26.1,41,29.68,10.0,South,15.0,-,N/A,,Clear,180,2012-12-08 21:53:00
3:53 PM,45.0,26.1,48,29.70,10.0,South,9.2,-,N/A,,Clear,180,2012-12-08 22:53:00
4:53 PM,41.0,26.1,55,29.73,10.0,South,10.4,-,N/A,,Overcast,190,2012-12-08 23:53:00
5:53 PM,44.1,26.1,49,29.78,10.0,West,4.6,-,N/A,,Overcast,270,2012-12-09 00:53:00
6:29 PM,42.8,26.6,53,29.78,10.0,NNE,16.1,28.8,N/A,,Overcast,20,2012-12-09 01:29:00
6:53 PM,41.0,27.0,57,29.83,10.0,NNE,10.4,-,N/A,,Overcast,30,2012-12-09 01:53:00
7:53 PM,39.0,21.0,49,29.87,10.0,North,15.0,-,N/A,,Overcast,360,2012-12-09 02:53:00
8:53 PM,37.9,19.9,48,29.88,10.0,NNW,26.5,39.1,N/A,,Overcast,340,2012-12-09 03:53:00
9:53 PM,36.0,17.1,46,29.91,10.0,NNW,24.2,29.9,N/A,,Overcast,330,2012-12-09 04:53:00
10:53 PM,33.1,21.9,64,29.93,10.0,NNW,16.1,28.8,N/A,,Overcast,340,2012-12-09 05:53:00
11:53 PM,33.1,19.0,56,29.91,10.0,NNW,13.8,-,N/A,,Overcast,330,2012-12-09 06:53:00